STARLINK-32477, 62038

Orbit data source: Space-Track

STARLINK-32477, 62038 is a payload satellite owned by SpaceX/Seattle (US) in LEO that was launched on Thu, 21 Nov 2024 UTC via an FALCON 9 launch vehicle from the Air Force Eastern Test Range (AFETR). Payload-class satellites include a variety of spacecraft equipped with specific instruments for various scientific and technological missions. These include communications satellites like Starlink; space stations such as the ISS; scientific satellites like the Hubble; Earth observation satellites from companies like Planet Labs, Umbra, and HawkEye 360; GPS; miniature CubeSats for education and research; and military/defense satellites.

Loading next visibility...
Identifier
62038, 2024-216G
Orbit
LEO
Country
Flag of USUS
Related business
Manufacturer
SpaceX/Seattle
Mission
Operational Commercial Communications
Bus & Motor
STARLINK V2M, Unknown motor
Mass
730 kg wet, ~700 kg dry
Launch date (UTC)
2024-11-21 (11 months ago)
Launch vehicle
FALCON 9
Launch site
Air Force Eastern Test Range (AFETR)
Object type
Payload
Rocket body
Debris
Shape & HBR
Box + 2 Pan, 17.7 m
Radar Cross Section
33.884 m², Large (>1 m²)

Expand to show TLE details & history
Last TLE update: 12 hours ago

TLE from 12 hours ago
0 STARLINK-32477
1 62038U 24216G   25309.10544471  .00028925  00000-0  10568-2 0  9997
2 62038  43.0010 236.3215 0001449 265.4467  94.6219 15.27569254 53705
Epoch: 2025-11-05T02:31Z
TLE epoch observation values (Epoch: 2025-11-05T02:31:50.422Z)
Latitude
-0.00005°
Longitude
153.77847°
Altitude
482.937 km
Speed
7.626 km/s
True Right ascension
15h 45m 17s
True Declination
0° 00' 00"
Sunlit
Object was in daylight at epoch
Visualization orbit readout
Latitude
Unknown
Longitude
Unknown
Altitude
Unknown
Speed
Unknown
Apparent Right ascension
Unknown
Apparent Declination
Unknown
Sunlit
N/A
Visualization observer readout
Local Sidereal Time
10:08:37
Azimuth
Unknown
Elevation
Unknown
Doppler factor
Unknown
Orbital elements
Apogee altitude
486.021 km
Perigee altitude
484.032 km
Semi-major axis
6,863.163 km
Eccentricity
0.00014
Inclination
43.001°
RAAN
236.3215°
Arg. of periapsis
265.4467°
True anomaly
94.63845°
Mean anomaly
94.6219°
Eccentric anomaly
94.63018°
Mean motion
3.8173 °/min
Orbital period
94.31 mins
BSTAR
0.0010568
Loading maneuver chart data...
Computing Atmospheric mass density...
Loading historical data...
Loading historical data...
Loading historical data...
Loading historical data...
Loading historical data...
Loading historical data...
Loading historical data...

Documentation

Showing up to 5 results
|